Wind_Speed
60 60 60 62 63 64 66 66 66 65 65 65 64 64 65 66 67 67 68 68 68 68 68 68 67 67 67 66 67 68 69 69 69 69 69 69 69 68 68 68 68 68 69 70 72 73 75 77 78 80 81 81 81 79 77 76 75 74 73 72 72 70 69 68 67 66 67 67 66 67 68 68 68 68 67 67 68 67 66 65 66 68 70 74 78
61 62 63 64 65 66 67 66 65 65 64 64 64 64 65 66 67 68 68 68 67 67 67 67 67 67 67 68 68 69 69 69 69 68 68 67 67 66 66 67 67 68 69 71 73 75 77 78 80 81 82 81 80 78 76 75 75 74 73 73 72 72 70 69 68 67 66 67 67 66 67 68 68 68 68 68 69 69 69 68 67 68 70 73 77
62 63 64 65 66 66 65 64 64 64 63 63 64 65 66 67 67 68 67 67 66 66 67 67 68 68 68 68 68 68 68 67 67 66 66 65 64 65 65 67 67 68 70 72 75 77 78 80 81 82 81 80 78 76 75 75 74 74 73 73 73 72 71 70 68 67 66 66 67 67 67 68 68 69 69 70 70 70 71 71 70 69 70 72 75
64 65 65 64 62 62 62 63 63 62 62 63 66 67 67 67 67 66 66 65 66 66 67 68 68 68 68 67 66 66 65 65 65 64 63 63 63 64 66 67 68 70 71 73 76 78 79 80 81 82 80 79 77 76 76 75 74 74 73 73 73 72 71 69 68 66 65 64 65 66 66 67 69 70 70 70 71 71 72 73 73 72 72 73 74
64 63 61 57 56 59 62 63 63 62 63 66 68 68 67 67 66 65 65 65 66 67 68 68 68 67 66 64 64 63 63 63 63 62 62 63 64 65 67 68 70 72 73 74 77 79 80 81 82 81 79 78 77 76 76 76 76 75 74 73 73 72 70 68 67 65 63 62 62 63 63 64 66 68 70 70 71 72 73 74 76 75 74 74 75
60 58 55 53 57 62 63 63 64 65 67 68 69 68 66 65 65 65 65 65 66 67 67 66 65 64 63 62 61 61 62 62 62 62 63 64 65 66 68 70 72 73 74 75 77 79 81 82 83 81 79 78 78 77 77 78 77 77 76 74 73 71 70 68 66 64 63 61 60 59 60 61 62 64 67 68 69 71 73 74 77 78 77 76 76
57 56 56 57 60 62 62 64 66 68 69 68 67 65 64 64 64 64 65 65 65 65 64 63 62 62 61 60 60 60 61 62 62 63 64 65 67 68 69 71 73 75 76 76 78 80 82 83 83 82 80 79 79 78 78 79 79 79 77 75 73 71 69 67 65 63 62 61 60 59 59 60 60 61 63 65 66 68 71 73 76 79 80 78 78
57 56 57 58 59 61 65 67 67 68 67 65 63 62 62 62 63 63 63 63 62 61 61 61 61 60 60 60 60 61 62 63 64 65 66 67 69 70 71 73 75 76 77 78 79 81 83 84 83 82 81 81 80 80 80 80 80 79 77 74 72 69 67 66 64 63 62 61 61 60 59 59 60 60 61 62 63 66 68 70 72 77 80 80 79
58 57 58 60 62 65 67 67 65 65 63 62 61 61 62 62 62 61 60 60 59 59 60 60 60 60 60 60 61 62 63 64 66 67 68 69 70 72 73 74 76 77 78 79 81 83 84 84 83 81 81 82 82 82 81 81 79 78 75 73 70 67 66 65 63 62 61 61 60 60 59 59 60 59 60 61 61 63 66 67 68 72 77 79 80
59 59 61 62 64 64 64 62 61 60 60 60 61 62 61 61 59 58 58 58 58 59 59 60 61 61 61 62 62 63 65 66 67 69 70 71 72 73 74 76 77 78 80 81 83 85 85 84 82 81 81 82 82 83 82 81 79 76 73 70 67 65 63 62 61 60 59 59 59 58 58 58 59 59 59 59 60 61 62 64 65 68 72 75 79
59 60 61 61 61 60 59 58 58 59 60 61 61 60 59 58 57 57 57 57 58 59 60 61 61 62 63 63 64 65 66 67 69 70 71 72 73 74 75 77 78 79 81 83 85 86 85 84 82 82 82 82 83 83 82 80 78 75 72 69 66 63 61 59 57 56 56 56 57 56 55 56 57 58 57 58 59 60 60 61 62 64 67 69 74
59 59 59 59 59 58 58 58 59 60 61 60 58 57 56 56 56 56 57 58 59 60 61 61 62 63 64 65 66 67 68 69 70 71 71 72 74 75 76 77 78 80 82 84 86 86 85 83 82 82 82 83 82 82 80 78 75 73 70 68 65 62 60 57 55 53 52 52 53 54 52 52 54 56 56 56 57 59 59 60 59 60 63 64 68
58 58 58 58 58 57 58 60 60 60 59 57 56 56 56 56 57 57 58 59 59 60 61 62 63 65 65 66 67 68 69 70 70 71 72 73 74 75 76 78 79 81 83 85 86 85 83 82 82 82 82 82 81 79 77 75 73 71 69 67 64 62 59 58 56 53 50 49 49 49 49 49 51 53 53 52 53 55 57 59 59 57 58 60 62
57 57 56 56 57 58 59 59 58 57 56 56 56 56 56 57 58 58 59 59 60 61 63 64 65 66 67 68 68 69 69 70 71 72 73 74 75 75 76 78 80 82 84 85 85 83 82 81 81 82 81 80 78 76 74 73 72 70 68 65 63 60 58 57 56 54 51 49 47 46 46 46 47 48 48 48 48 51 53 55 57 56 56 57 57
55 55 55 56 57 58 57 56 55 55 56 56 56 57 57 58 58 59 59 60 61 63 64 65 66 67 68 68 69 69 69 70 71 72 73 74 75 76 77 79 81 83 85 84 82 81 80 80 81 81 79 77 75 73 72 71 70 68 66 63 61 59 57 56 55 52 51 50 48 47 46 45 45 44 45 44 45 46 48 50 52 53 53 53 53
54 55 56 57 57 56 55 55 55 56 56 57 57 57 57 58 59 60 60 61 62 63 64 65 66 67 68 68 68 69 69 70 71 72 73 74 75 76 78 80 82 83 83 81 80 79 79 80 79 78 77 75 73 72 71 69 68 66 63 61 59 58 57 56 55 52 50 50 48 47 45 44 42 41 40 40 41 42 45 46 46 47 48 48 48
55 56 56 56 55 55 55 56 56 56 56 56 57 57 58 58 59 60 61 62 63 64 65 66 67 68 68 69 68 69 69 70 71 72 72 74 75 77 79 81 82 81 80 78 78 78 78 78 77 76 74 73 72 71 69 67 65 62 60 59 57 56 56 57 56 54 52 51 50 48 45 43 41 39 37 35 35 38 41 42 41 40 42 42 42
55 55 55 55 55 55 55 55 55 55 56 56 57 58 58 59 60 61 62 63 64 65 66 67 68 69 69 69 68 69 69 70 71 72 73 74 76 78 80 81 80 78 77 76 76 77 76 75 74 74 73 72 71 69 67 64 61 59 58 57 56 55 55 55 55 55 53 52 51 48 46 43 39 37 35 33 31 32 35 38 37 35 34 35 37
53 53 54 54 54 54 54 54 54 55 55 56 57 58 59 60 61 62 63 64 65 65 66 67 69 70 69 69 68 69 70 71 71 72 74 75 77 79 79 78 77 75 75 75 75 75 74 73 73 72 72 71 69 67 64 61 59 57 55 55 54 54 53 53 53 52 51 50 48 46 44 41 39 36 33 31 29 28 28 32 34 33 29 29 33
53 53 53 53 53 53 53 53 53 55 56 57 59 60 61 61 62 63 64 65 65 66 67 68 70 71 70 69 69 69 70 71 72 73 75 77 78 79 78 76 74 74 74 73 73 73 73 73 73 72 71 70 68 65 62 60 57 55 54 54 53 52 51 51 50 48 46 45 44 42 40 38 36 33 31 28 27 25 24 26 29 30 27 26 31
52 52 52 52 52 52 52 53 55 56 58 59 60 61 62 62 63 64 64 65 66 67 68 69 71 71 70 69 69 70 71 72 73 74 76 78 78 77 75 74 73 72 72 72 72 73 73 74 73 72 70 68 65 63 61 58 56 55 54 53 52 50 49 48 47 45 43 42 40 39 37 35 33 30 28 25 24 23 22 22 24 26 25 24 27
51 51 51 51 51 52 53 55 57 58 59 60 60 61 62 62 63 64 65 66 67 68 69 70 71 70 69 69 70 70 71 73 74 76 77 77 76 74 73 71 71 71 71 71 72 73 74 74 72 71 68 65 62 60 58 57 55 54 54 53 51 50 49 47 45 44 42 41 39 37 36 33 31 29 26 23 22 21 20 20 21 21 22 21 23
51 51 51 51 52 54 56 57 59 59 60 60 61 61 62 63 63 64 65 66 67 69 69 70 70 69 69 69 70 71 72 74 75 76 75 75 73 71 70 69 69 69 70 71 72 74 75 73 71 68 65 62 59 57 56 55 53 53 53 53 51 49 49 47 45 44 43 41 39 37 35 33 30 28 26 23 21 20 18 18 17 17 18 18 19
52 52 52 53 54 56 58 59 60 61 61 61 61 61 62 63 64 65 66 66 68 69 69 69 69 68 68 68 69 71 72 73 74 73 73 71 69 68 67 67 67 68 69 71 73 74 73 71 68 66 62 58 56 55 54 53 52 51 51 51 49 48 48 47 46 45 44 41 39 36 34 32 29 27 26 24 21 20 18 16 15 14 14 15 16
52 53 53 55 57 58 60 61 62 62 62 62 62 63 63 64 64 65 66 67 68 69 69 68 68 68 68 68 69 70 71 71 71 71 69 67 66 65 66 66 66 67 69 71 73 73 71 68 66 62 58 55 53 53 53 52 51 50 49 49 48 48 47 47 46 45 43 40 38 35 32 30 28 26 25 24 21 19 17 15 13 12 12 13 15
54 55 56 57 59 61 62 64 64 64 64 64 64 64 64 65 65 66 66 67 68 68 68 68 68 67 68 68 68 68 68 68 69 68 66 65 64 64 65 65 66 68 70 72 72 70 67 65 63 59 55 53 51 50 50 51 50 49 48 48 48 47 47 46 45 43 41 39 36 34 32 29 27 24 23 22 20 17 15 13 11 10 11 12 15
56 57 58 60 62 64 65 66 66 66 66 66 66 65 65 66 66 66 66 67 67 68 68 68 67 67 67 67 66 65 66 67 66 65 63 63 64 64 65 65 67 68 70 71 69 66 64 62 59 56 53 51 50 48 48 49 50 49 48 48 48 47 47 46 44 42 41 39 36 33 31 28 25 23 22 20 18 16 13 11 9 8 9 12 15
59 60 61 63 65 66 67 68 68 67 67 67 67 66 66 67 67 66 66 67 67 67 67 67 67 67 66 65 64 63 64 64 63 62 62 63 63 64 65 66 67 69 69 67 64 63 61 59 56 53 51 49 49 48 48 48 49 48 48 47 48 48 47 47 46 45 43 41 38 34 30 27 25 22 21 19 17 15 12 9 7 6 8 11 14
62 63 64 65 67 68 69 69 69 69 69 68 68 67 67 67 67 66 66 67 67 67 67 67 66 66 65 62 61 60 61 61 61 61 62 62 62 63 65 66 68 67 65 63 61 60 58 55 52 50 49 48 47 47 47 48 48 47 47 47 47 47 47 47 46 44 42 40 37 33 30 27 24 21 19 17 16 13 11 8 5 5 6 9 13
64 65 66 67 69 70 70 70 70 70 70 69 68 68 68 67 67 67 67 67 67 67 67 66 65 64 61 58 57 58 58 59 60 61 61 61 62 63 65 66 65 63 61 59 58 57 54 52 50 48 46 46 45 45 46 47 47 46 45 45 46 46 46 45 45 43 41 38 35 32 28 26 24 21 18 16 14 12 9 6 4 3 5 8 12
66 67 68 69 70 71 71 71 71 71 70 70 69 69 68 67 67 67 68 68 67 67 66 64 62 59 56 54 55 56 57 59 60 60 59 60 61 63 64 63 61 59 58 57 56 53 51 48 47 45 44 43 43 43 44 44 45 45 45 44 44 44 44 44 43 42 40 36 34 31 28 25 23 21 18 16 13 11 8 5 2 1 4 7 11
69 69 70 70 71 72 72 72 72 71 70 70 69 68 68 68 68 68 68 68 67 65 64 61 57 53 52 53 55 56 58 59 59 58 59 60 62 62 61 59 58 57 56 55 52 50 48 45 44 43 42 41 41 41 42 42 42 43 43 43 42 42 42 42 41 40 38 35 33 31 27 24 22 20 18 15 13 10 7 4 1 1 3 7 11
70 70 71 72 72 72 72 72 71 71 70 69 68 68 69 69 69 68 68 67 65 63 59 55 52 50 51 53 55 57 58 58 57 58 59 60 61 60 58 56 56 55 54 52 50 47 45 43 42 41 40 40 39 39 40 41 41 41 42 41 41 40 40 40 39 38 37 35 33 30 27 24 21 19 17 15 12 9 7 4 1 3 4 7 10
72 72 72 72 72 72 72 72 72 71 71 70 69 69 69 69 68 68 66 64 61 58 53 50 49 50 52 55 57 57 57 57 57 58 59 59 58 56 55 55 54 53 52 49 47 44 43 41 40 39 39 38 38 38 38 39 40 40 40 40 40 39 39 39 38 38 37 35 32 29 27 24 21 18 16 14 12 9 6 4 2 4 6 7 11
72 72 72 72 73 72 72 72 72 72 70 69 68 68 67 67 66 64 62 59 55 52 49 48 49 52 54 57 57 57 56 56 57 58 57 56 55 54 53 53 52 50 49 47 44 42 41 40 39 38 37 37 37 37 37 37 38 39 39 39 39 38 38 37 37 37 37 35 32 29 26 23 20 18 16 13 11 9 6 4 3 5 7 9 11
72 71 72 72 72 72 71 71 70 69 68 66 65 65 64 63 61 58 55 52 50 48 48 49 51 54 56 57 56 56 56 57 57 57 56 54 53 53 52 51 50 48 46 44 42 40 39 38 37 36 36 36 36 36 36 36 36 37 37 37 37 37 36 36 36 35 35 34 32 30 27 24 21 18 16 13 10 8 6 5 4 6 8 11 12
70 69 69 69 68 67 66 66 65 64 62 61 61 60 59 57 54 51 48 47 47 48 49 51 53 55 56 56 55 56 56 57 56 55 54 53 52 52 51 49 48 46 44 43 42 40 38 36 35 35 35 36 36 35 35 35 35 35 35 35 35 35 34 34 33 33 32 32 32 30 28 25 22 18 16 13 11 8 6 4 5 7 10 12 14
65 63 63 62 61 60 60 60 60 59 58 57 55 53 51 48 47 46 46 47 48 49 51 53 54 55 55 55 55 56 56 56 54 53 52 51 51 50 49 48 46 43 42 41 40 39 37 36 35 35 35 35 35 35 35 35 34 34 34 34 34 34 33 32 32 31 31 31 31 30 28 26 23 19 16 13 11 8 6 4 5 7 10 12 15
59 57 57 56 55 55 55 54 54 53 52 51 49 47 45 45 45 46 47 48 49 51 52 53 54 54 54 54 55 56 56 55 53 51 51 51 50 49 47 45 43 41 39 38 37 36 36 35 35 35 35 35 35 35 34 34 34 33 32 32 33 33 32 32 31 31 31 30 29 29 28 26 24 21 17 14 11 9 7 5 5 7 10 12 15
55 54 52 51 49 49 48 48 47 47 46 45 45 44 45 45 46 47 49 50 51 52 52 53 53 53 53 54 56 56 56 54 52 50 49 49 48 47 45 43 41 39 37 35 35 34 34 34 35 35 35 35 35 34 34 33 33 33 32 32 31 31 31 31 31 30 30 29 28 27 27 26 24 22 19 16 12 10 8 6 5 7 9 12 15
53 51 49 46 44 43 43 43 42 42 42 42 43 44 45 46 47 49 50 51 51 52 52 52 52 53 54 55 56 55 54 52 50 49 48 47 45 44 43 41 39 37 35 34 33 33 33 34 34 34 34 34 34 34 33 32 32 32 32 31 31 31 30 30 30 29 29 28 27 26 25 25 24 23 21 18 14 11 8 7 6 7 9 12 15
50 49 45 43 42 41 41 41 41 41 42 43 44 45 46 47 48 49 50 51 51 51 51 52 53 54 55 55 54 51 50 49 48 47 46 45 43 42 41 40 39 37 35 34 33 33 34 35 35 35 34 33 33 33 33 32 31 31 32 32 31 31 31 30 29 29 28 28 27 26 24 24 23 22 20 19 16 13 9 7 6 7 9 11 14
47 45 43 41 41 41 41 41 42 42 43 44 45 46 47 48 49 50 50 50 50 51 52 53 54 55 54 52 50 48 47 47 47 45 44 43 42 41 41 40 38 37 35 34 34 34 34 34 35 35 34 34 33 33 32 32 32 32 32 33 32 32 32 31 30 29 28 28 27 26 24 23 22 21 20 18 17 15 12 8 6 7 8 10 13
44 43 42 42 42 42 42 42 43 44 44 45 46 47 48 48 48 49 49 50 51 52 53 54 54 53 51 49 47 46 46 46 45 43 42 42 41 40 39 39 38 37 36 35 34 34 33 32 32 33 33 33 33 32 32 33 32 32 33 34 34 33 32 32 31 30 29 28 27 27 25 24 22 21 19 18 17 16 14 11 8 6 7 10 12
43 43 42 42 43 43 43 44 45 45 45 46 46 47 47 47 48 48 50 51 52 53 53 52 51 49 47 46 46 45 44 44 43 42 41 40 40 39 38 38 37 36 36 35 34 33 32 30 30 30 30 31 31 32 33 34 34 33 33 33 33 33 32 32 31 30 29 28 28 27 26 25 23 21 20 18 17 16 15 13 11 8 7 8 11
43 42 42 42 43 43 44 44 44 44 44 45 45 46 46 47 49 50 51 51 52 51 49 48 46 45 45 45 45 44 43 42 41 40 39 39 39 38 37 36 36 35 35 35 34 33 32 30 28 27 26 26 27 29 32 34 35 35 34 33 32 32 32 31 31 30 29 29 28 27 26 25 24 22 21 19 18 16 15 14 13 11 9 8 9
42 42 41 42 42 43 43 43 43 44 44 45 46 47 48 49 49 49 49 49 48 46 45 44 44 44 44 44 43 42 41 40 40 39 38 38 37 36 36 35 34 33 33 33 33 32 32 31 30 28 26 25 25 26 27 30 33 35 36 35 34 33 32 31 30 29 29 28 27 26 26 25 24 23 22 20 19 17 15 14 13 13 12 10 9
44 43 42 42 43 44 44 44 45 45 46 46 47 47 47 47 47 46 46 45 44 44 43 43 43 43 43 42 41 40 40 39 38 38 37 37 36 35 35 34 33 32 32 31 31 31 31 32 32 31 29 29 28 26 25 26 28 31 34 35 35 35 34 32 30 29 28 27 26 25 25 25 25 24 23 22 20 19 17 15 14 13 12 12 12
45 45 45 45 45 45 45 45 46 46 46 46 45 45 45 44 44 43 43 43 43 43 43 43 42 42 41 40 40 39 38 37 37 37 37 37 36 36 35 34 34 33 31 30 30 30 31 32 33 34 34 32 31 30 29 27 26 27 29 31 32 33 33 32 30 28 27 26 25 24 24 25 25 25 24 23 22 21 19 17 16 14 13 12 12
45 45 46 45 45 44 45 45 45 45 44 43 43 43 42 42 42 42 41 42 42 42 42 41 41 41 40 39 38 37 37 36 36 36 36 36 36 36 35 34 33 32 31 31 30 30 31 31 33 35 37 37 36 35 33 32 29 27 27 28 28 29 29 30 29 28 27 25 25 24 24 24 24 25 25 25 24 22 21 20 18 17 15 14 13
44 44 44 44 43 42 42 42 42 42 42 41 41 41 41 41 41 41 41 41 41 40 40 40 40 39 38 37 37 36 36 35 36 36 36 36 35 34 34 33 32 31 31 32 32 32 32 32 33 35 37 38 38 38 37 36 33 30 28 27 26 27 27 28 29 29 29 28 27 26 26 25 25 25 25 25 24 23 22 22 21 19 18 16 15
Wind_Direction
282 284 285 287 289 290 291 292 294 294 295 296 298 299 300 302 302 302 303 303 303 302 302 302 302 303 304 304 304 305 305 304 304 304 305 305 306 306 306 306 306 306 307 307 307 307 308 308 308 308 308 308 307 306 305 304 303 302 301 300 299 298 296 295 293 290 288 287 284 282 280 278 276 275 273 270 268 264 259 254 249 245 242 239 238
283 284 286 287 289 290 291 291 292 293 295 296 297 299 301 302 302 302 302 302 301 301 301 301 301 302 303 304 304 304 304 304 304 305 305 306 306 306 306 306 306 307 307 308 308 308 309 309 309 309 309 308 307 306 305 304 303 303 302 301 300 299 297 296 294 292 289 287 284 281 279 276 274 273 271 269 267 265 262 258 253 248 243 240 238
283 285 286 287 288 289 289 290 291 293 294 296 298 300 301 301 301 301 301 300 300 299 300 300 301 302 303 304 304 304 304 304 304 305 306 306 306 306 306 306 307 308 308 308 309 309 310 310 310 310 309 308 307 306 305 304 304 303 302 301 301 300 298 297 294 292 289 286 284 281 278 276 273 270 269 267 266 265 263 260 256 251 246 242 238
283 284 285 287 287 287 287 289 292 293 294 296 298 299 300 300 300 300 299 299 298 299 300 300 301 302 303 303 304 304 304 304 305 305 306 306 306 306 307 307 308 308 309 309 309 310 311 311 311 311 310 309 308 307 306 305 304 304 303 302 302 301 299 297 294 292 289 286 283 280 277 274 272 270 268 266 264 263 262 261 258 254 250 245 241
282 283 285 285 284 285 287 290 292 292 294 295 297 298 298 299 299 299 298 298 298 299 300 301 302 302 303 304 304 304 304 305 305 305 306 306 306 307 308 308 308 309 310 310 311 311 312 313 312 312 311 310 309 308 307 307 306 306 305 305 304 303 301 299 297 294 291 287 284 280 277 274 271 269 267 265 263 262 261 260 259 256 253 249 244
280 281 281 281 282 285 288 290 291 292 294 295 296 297 297 298 298 297 298 298 299 300 300 301 302 303 303 304 304 304 304 304 305 305 306 306 307 308 309 309 309 310 311 312 312 313 314 314 314 313 312 311 310 310 309 308 308 308 308 307 306 305 303 301 299 297 294 291 287 283 279 276 272 270 267 265 263 261 259 258 258 257 254 251 248
279 278 279 281 283 285 287 290 291 293 294 295 296 296 297 297 297 297 298 299 299 300 300 301 302 303 303 304 303 304 304 304 305 306 307 308 309 309 310 310 311 312 312 313 313 314 315 315 315 314 313 312 311 311 310 310 310 310 309 309 307 306 305 303 301 298 296 293 289 286 282 278 275 272 269 266 263 260 258 257 256 257 255 252 250
279 280 281 283 284 285 288 291 292 293 294 295 295 296 296 297 297 298 298 299 299 300 300 301 302 303 303 303 303 304 304 305 306 307 308 309 310 310 311 311 312 312 313 314 314 315 316 316 315 314 313 313 312 311 311 311 311 310 310 309 308 307 305 303 301 299 297 294 291 288 284 281 278 274 271 268 265 262 259 257 255 255 256 254 251
280 281 283 285 286 287 290 292 292 293 294 294 295 296 297 298 298 298 298 299 299 300 300 301 302 302 302 303 304 304 305 307 308 308 309 310 311 311 312 312 312 313 314 315 316 316 317 316 315 314 314 313 312 312 312 312 311 311 310 309 308 307 306 304 302 299 297 294 292 289 286 283 280 277 274 271 268 264 262 259 256 254 255 255 254
283 284 285 287 288 289 291 292 292 293 294 295 296 297 297 297 297 298 298 299 299 300 300 301 302 302 303 304 305 306 307 308 308 309 310 311 311 311 312 312 313 314 314 315 316 317 317 316 315 314 314 313 313 313 313 313 312 311 310 309 308 307 306 304 301 299 297 294 292 290 288 285 283 280 277 274 271 267 264 261 258 255 253 254 255
284 286 287 288 289 290 291 292 293 294 295 295 296 296 296 296 297 298 298 298 299 300 300 301 302 303 304 305 306 307 307 308 309 310 311 311 311 311 312 313 313 314 315 316 317 317 316 316 315 314 314 313 314 314 314 313 313 312 311 311 310 308 306 304 302 300 297 295 293 291 289 287 285 282 279 277 274 271 268 264 260 257 254 252 252
284 286 287 288 289 290 291 291 292 293 294 295 295 295 296 296 297 298 298 299 300 300 301 302 303 304 305 306 306 307 308 309 310 310 310 310 311 312 312 313 314 315 316 316 317 317 316 315 314 314 314 314 314 314 314 314 314 313 313 313 312 310 308 306 303 300 298 296 294 293 291 289 286 283 280 278 275 273 271 268 263 259 256 253 250
284 285 286 287 288 289 290 291 292 293 293 294 294 295 296 296 297 298 298 299 300 301 302 303 304 305 306 306 307 308 309 309 310 310 310 310 311 312 313 313 314 315 316 317 316 316 315 314 314 314 314 314 315 315 315 316 316 315 315 315 314 313 311 309 306 304 302 299 297 295 293 290 287 285 282 280 277 274 272 270 267 263 259 255 251
284 285 286 287 288 289 290 291 292 292 292 293 294 295 295 296 297 298 299 300 301 302 303 304 304 305 306 306 307 308 309 309 309 309 310 311 311 312 313 313 314 315 316 316 315 314 314 314 314 314 314 315 316 316 317 318 318 317 317 317 316 314 313 311 309 308 307 305 303 301 298 294 291 289 286 283 279 275 273 270 268 267 263 260 256
285 286 286 287 288 289 290 290 291 291 292 293 294 295 296 297 297 298 300 300 301 302 303 304 305 305 306 307 308 309 309 309 309 309 310 311 311 312 313 314 315 315 316 315 314 314 314 314 314 314 315 316 317 319 319 319 319 319 319 318 317 316 315 312 311 312 311 310 308 306 304 300 297 293 290 287 282 277 274 271 269 267 265 262 260
284 284 285 287 288 288 289 289 290 292 293 294 295 296 297 297 298 299 300 301 302 303 304 305 305 305 306 307 309 309 309 309 309 309 310 310 311 312 313 314 315 315 315 314 314 314 314 314 314 315 317 319 320 321 321 321 321 320 320 319 318 318 317 315 315 315 315 314 312 310 308 305 301 298 294 289 285 280 276 273 270 268 266 263 261
282 284 285 286 287 288 289 290 291 293 294 295 296 297 298 299 300 301 302 302 303 304 304 305 305 306 307 308 309 309 309 308 309 309 310 311 312 313 314 314 314 314 314 314 314 314 314 314 315 317 320 321 322 322 322 322 322 322 321 320 320 321 321 319 319 319 319 318 316 314 312 310 306 302 298 293 287 282 279 277 273 270 267 265 261
282 284 284 286 287 288 290 291 293 294 295 296 297 298 299 300 301 302 302 303 303 303 304 305 305 306 307 308 310 309 309 308 309 310 311 311 312 313 313 314 314 314 314 314 313 313 314 315 318 320 322 322 323 323 323 323 323 323 323 322 323 323 323 322 322 323 323 321 319 317 315 313 310 307 303 297 290 284 280 279 277 272 266 263 260
282 283 284 286 288 289 291 293 295 296 297 298 299 300 301 301 301 302 302 302 303 303 304 304 305 306 307 309 310 309 308 309 310 311 311 312 312 313 313 314 314 314 313 313 313 314 316 318 321 322 323 323 323 323 324 324 325 325 324 325 325 325 325 324 324 324 324 322 320 318 317 315 313 311 307 302 295 288 281 277 276 273 265 257 254
282 283 285 287 289 291 293 296 298 299 299 300 300 300 300 300 301 301 301 302 303 303 304 304 305 306 308 310 309 309 309 309 310 311 311 311 312 313 314 314 314 314 313 314 315 316 319 321 322 323 324 324 325 325 325 326 326 327 327 326 327 326 325 324 324 326 325 323 321 320 318 317 315 313 310 306 300 293 285 277 273 271 266 254 249
283 285 286 288 291 294 296 298 300 300 300 300 300 300 300 300 300 300 301 301 302 302 303 304 304 307 309 310 309 309 309 310 310 310 310 311 313 314 314 314 313 313 314 315 317 319 321 322 323 324 325 325 326 326 326 327 328 329 328 327 327 327 326 325 327 329 329 327 325 324 322 320 318 316 313 309 304 298 290 280 273 269 265 256 249
284 286 288 291 293 296 298 300 300 300 300 300 300 299 300 299 299 300 300 300 301 301 302 303 305 308 309 309 308 309 309 309 309 310 311 312 313 314 313 313 313 314 316 317 319 321 322 323 323 324 325 326 326 327 327 328 329 330 329 329 329 329 328 329 331 334 334 332 331 329 326 325 323 321 318 314 307 301 293 283 275 269 264 257 249
286 288 290 292 295 297 299 300 301 301 301 300 300 299 299 299 299 299 299 299 300 300 301 304 307 308 308 308 308 308 308 308 309 310 312 313 312 312 312 312 314 315 317 319 321 322 322 322 323 324 326 327 327 327 327 328 330 331 330 330 331 331 332 334 337 339 339 337 335 333 331 330 329 327 324 321 315 307 298 287 277 270 262 254 245
287 288 290 293 296 298 300 301 301 301 301 300 299 299 298 298 298 298 298 299 299 300 302 305 307 307 307 307 307 307 307 308 309 310 311 311 311 311 312 314 315 317 319 320 321 321 321 322 323 325 326 327 327 327 327 328 330 332 332 331 333 334 336 338 341 343 342 339 338 337 335 333 333 332 329 326 320 312 303 292 280 270 259 247 236
287 288 291 294 296 298 299 300 300 300 300 299 298 298 297 297 297 297 298 298 299 301 303 305 305 305 305 305 306 306 307 308 308 309 309 309 310 312 313 315 317 318 319 320 320 320 320 322 323 325 326 327 328 328 328 329 330 332 333 333 335 338 339 341 344 345 344 342 340 339 338 337 336 335 332 326 320 313 304 294 283 270 254 238 226
287 289 292 293 295 296 297 299 299 299 299 298 297 297 296 296 296 296 297 298 300 302 303 303 303 304 304 305 305 306 306 306 306 307 308 309 311 313 315 316 318 319 319 319 319 319 320 322 324 325 326 328 329 329 329 329 330 333 335 337 338 340 342 343 345 347 346 344 343 343 341 340 339 337 334 328 322 315 307 295 283 267 249 232 220
288 290 291 292 293 294 296 297 298 298 298 297 297 296 295 295 295 296 297 299 300 301 301 302 303 303 304 304 304 304 304 304 306 308 309 311 313 315 316 317 318 318 318 318 318 319 321 323 324 325 327 328 329 329 329 331 332 335 338 340 340 342 343 344 346 349 349 347 347 346 344 341 341 341 339 333 325 317 310 299 285 266 245 229 218
288 289 290 291 292 293 295 296 297 296 296 296 296 295 294 294 294 295 297 298 299 299 300 301 302 303 303 303 302 302 303 305 307 310 312 314 315 315 316 316 316 316 316 317 318 320 322 323 324 326 327 329 329 330 331 333 334 336 339 342 342 343 345 346 348 350 351 350 348 347 345 344 344 345 342 336 328 320 313 303 288 265 242 227 217
287 288 288 289 291 292 294 294 295 295 295 294 294 293 292 293 294 296 296 297 297 298 300 300 301 302 302 301 301 302 304 307 310 312 314 314 313 314 315 315 315 315 316 317 319 321 322 323 324 326 328 329 330 331 333 333 335 337 340 344 344 345 346 348 349 351 352 351 348 347 346 346 346 346 344 339 332 325 317 308 293 266 238 223 215
286 287 288 289 290 291 292 293 293 293 293 292 292 291 291 293 294 295 295 295 297 298 299 300 300 300 300 300 301 304 307 310 312 312 311 311 312 313 313 313 313 315 317 319 321 322 323 324 325 327 328 329 330 332 333 333 335 338 341 344 345 346 347 348 349 350 352 352 349 348 348 348 348 347 345 342 337 330 321 314 302 265 234 219 211
285 286 288 289 289 290 291 291 291 291 291 290 290 290 291 292 293 293 294 295 296 297 298 299 299 298 299 301 304 306 309 310 310 309 310 311 312 312 312 312 314 316 318 320 321 322 323 324 325 326 328 329 331 332 333 333 335 338 342 344 346 347 348 349 350 350 351 352 352 351 351 351 350 349 347 344 340 334 326 319 308 245 221 215 209
285 286 287 288 288 288 289 289 289 289 289 289 289 290 291 291 291 292 293 294 295 296 297 297 296 297 300 304 306 308 309 309 308 308 310 311 312 312 312 314 316 318 320 321 321 322 322 323 325 326 328 330 331 332 332 333 336 339 342 344 346 348 348 349 350 350 351 354 355 354 352 352 353 352 349 345 341 335 330 324 306 186 198 207 207
285 286 286 286 286 286 287 287 287 287 287 288 288 289 289 289 290 291 292 293 294 295 295 295 296 299 303 305 307 308 307 307 307 309 310 311 312 313 314 316 318 320 321 321 321 321 322 323 325 326 328 329 330 331 332 333 337 340 341 343 346 348 348 349 350 351 353 356 357 356 354 354 355 354 352 348 344 338 330 317 248 172 183 198 202
284 285 285 285 285 285 285 285 285 285 286 286 287 287 288 288 289 290 291 293 294 295 294 295 298 302 305 306 306 306 306 306 307 309 310 312 313 315 316 318 319 320 320 320 320 321 322 323 325 327 327 328 329 330 332 335 338 340 342 343 345 348 350 350 352 353 354 355 358 360 358 356 356 357 356 352 347 340 328 304 235 178 178 191 199
284 284 284 284 284 284 283 283 283 284 285 285 285 286 286 287 288 289 291 292 292 293 294 297 301 304 305 305 305 305 305 307 308 310 311 313 314 316 317 318 319 320 319 319 319 321 322 324 325 326 326 327 328 330 334 337 339 340 342 343 345 348 350 352 354 355 354 354 357 0 1 359 358 359 358 355 350 343 328 299 244 194 180 186 197
283 283 283 283 282 282 282 282 282 283 283 284 284 284 285 286 288 289 289 290 291 293 296 300 303 304 304 303 304 305 306 307 309 311 313 314 315 316 317 318 319 319 318 318 319 320 322 324 324 324 324 325 327 330 335 337 339 340 342 343 345 347 350 353 355 356 355 354 356 359 2 3 1 360 359 357 352 345 331 302 256 216 194 187 193
282 282 281 281 281 281 281 281 281 282 282 282 282 283 285 287 288 289 290 291 293 296 299 301 301 302 302 303 304 305 306 308 310 312 313 314 315 316 318 319 319 318 318 317 319 321 323 323 322 322 323 324 327 331 335 337 338 340 341 342 344 347 349 352 355 357 357 357 356 357 1 3 3 1 360 358 354 348 334 306 263 234 215 199 194
281 280 280 280 280 280 280 280 281 282 283 283 285 286 288 290 291 291 292 294 295 297 298 299 300 301 302 302 303 304 306 309 311 312 313 314 315 317 318 318 318 317 317 317 318 320 321 321 321 321 322 325 329 332 334 336 337 340 341 342 344 346 348 350 354 357 359 359 359 358 359 1 2 3 2 359 355 349 335 305 268 245 231 217 205
279 279 279 279 280 280 280 281 281 282 284 286 288 289 290 291 292 293 293 294 295 296 297 298 299 300 300 301 303 306 308 310 311 312 313 314 315 316 316 316 315 315 315 316 317 318 319 319 320 321 323 327 330 332 333 335 336 338 341 342 343 345 347 349 353 356 358 360 0 0 359 358 360 3 4 1 355 349 338 312 272 249 239 231 220
278 279 279 280 281 281 281 282 282 283 285 287 287 288 289 290 291 292 292 293 294 295 296 298 298 299 300 303 305 307 308 309 310 311 312 313 314 314 314 313 313 314 314 314 315 316 318 319 320 322 325 328 329 329 331 333 335 337 339 341 343 344 346 349 351 354 357 358 0 1 0 359 358 0 2 2 359 352 340 319 285 255 242 236 231
279 280 281 282 282 282 282 282 283 284 285 286 286 287 288 289 289 290 291 292 293 295 296 297 298 299 302 304 305 306 307 307 308 310 311 311 312 312 311 311 312 313 313 314 316 317 319 320 321 323 325 327 327 327 329 332 334 336 337 339 341 343 345 348 350 351 354 356 358 360 1 1 359 359 359 360 359 354 341 321 297 268 248 238 235
279 280 282 283 282 282 282 282 283 284 284 284 285 286 286 287 287 288 290 291 293 294 295 296 298 300 301 302 302 303 304 305 307 308 309 310 311 311 311 311 312 313 314 316 318 320 321 322 323 324 324 325 325 326 327 330 333 334 335 337 340 341 343 345 347 349 351 353 355 357 359 0 0 359 357 356 356 355 347 328 302 279 259 244 237
278 279 281 281 280 280 281 281 282 282 282 283 283 284 285 286 287 288 289 291 292 293 294 296 297 298 299 299 300 302 303 304 306 307 308 309 310 310 310 311 312 313 315 318 320 321 322 323 323 323 323 324 325 326 327 328 331 333 334 336 338 340 341 342 343 345 347 349 351 353 355 357 359 359 357 355 354 352 349 338 313 286 268 253 243
277 278 278 279 279 279 280 280 280 280 281 282 282 283 284 285 286 287 288 290 291 292 294 295 295 296 297 299 300 302 303 304 305 306 308 308 309 308 309 310 311 313 316 318 320 321 322 322 321 320 321 323 324 324 325 327 329 332 333 335 336 337 338 339 339 341 344 346 348 349 351 353 355 356 356 355 353 350 347 342 329 301 274 260 250
275 276 276 277 278 278 278 278 279 279 280 281 281 282 283 284 285 286 287 288 290 291 292 292 293 295 297 299 300 301 302 303 304 305 306 306 306 307 308 310 312 314 315 317 318 319 319 318 318 318 320 322 323 323 324 325 327 330 332 332 333 333 334 335 336 339 342 344 346 347 348 349 350 352 352 353 352 350 346 342 335 321 293 267 255
271 272 273 273 273 273 274 275 276 276 277 278 279 280 281 282 284 285 286 287 288 289 290 291 293 295 297 298 299 300 301 302 303 304 304 305 305 307 308 309 310 312 313 314 315 316 315 314 315 316 317 319 320 321 322 323 325 327 328 329 330 330 331 332 335 338 341 343 344 345 346 348 349 349 349 350 350 349 347 341 335 328 315 288 263
271 270 270 270 270 271 271 272 273 274 275 276 277 279 280 282 283 284 284 285 286 287 289 292 293 295 296 297 298 299 300 301 301 302 303 303 303 304 305 306 307 309 310 312 313 313 313 313 314 314 315 316 316 318 320 321 322 324 326 327 328 329 330 332 334 337 339 341 342 344 346 348 349 349 349 348 347 346 345 342 337 330 321 308 288
271 271 271 270 270 271 272 272 273 274 275 277 278 279 281 281 282 282 283 285 286 289 291 292 294 294 295 296 296 297 298 298 299 299 299 300 300 301 302 304 306 308 310 311 312 312 313 313 314 314 315 315 316 317 318 318 319 320 322 324 325 326 328 330 333 335 337 338 340 342 344 347 348 348 349 349 348 346 344 342 338 332 323 314 303
269 270 270 270 270 272 273 274 275 276 277 278 279 279 279 280 281 282 284 286 288 290 291 292 293 293 294 294 294 295 295 296 297 297 298 299 301 303 305 307 309 310 311 311 311 311 312 313 314 314 315 316 317 317 318 318 319 319 320 320 322 323 324 326 328 331 332 334 336 339 342 344 344 345 345 346 346 346 344 342 339 334 327 318 308
268 269 270 271 272 273 274 275 276 277 277 277 277 278 279 280 282 284 286 288 289 290 291 292 292 292 292 292 293 293 294 295 297 297 299 300 302 303 305 306 308 308 309 309 309 310 311 312 313 314 315 316 317 319 319 319 320 321 322 322 321 321 321 322 323 325 327 330 332 334 337 338 339 339 339 339 340 342 342 342 339 336 331 324 315
267 268 270 271 272 272 273 273 274 274 275 276 277 279 281 283 284 286 287 288 289 290 290 290 290 290 290 291 291 292 293 294 295 296 297 298 299 300 301 302 304 305 306 308 309 310 310 311 311 312 313 315 316 318 318 319 320 322 323 323 322 321 321 320 321 322 324 326 327 329 331 332 332 332 332 332 333 335 336 337 336 335 332 328 322
Height
10681 10680 10679 10678 10677 10675 10673 10672 10671 10670 10668 10666 10664 10661 10659 10656 10653 10650 10647 10644 10641 10638 10635 10632 10630 10627 10625 10623 10620 10616 10613 10609 10606 10602 10599 10595 10591 10586 10582 10578 10574 10569 10564 10559 10555 10551 10547 10542 10536 10530 10525 10519 10514 10509 10504 10500 10496 10491 10488 10484 10480 10477 10474 10472 10470 10468 10463 10459 10458 10455 10450 10448 10446 10443 10443 10442 10441 10443 10447 10450 10453 10455 10457 10459 10460
10675 10674 10673 10672 10671 10669 10667 10666 10665 10664 10662 10660 10658 10655 10653 10650 10647 10644 10641 10638 10635 10632 10629 10626 10624 10622 10619 10617 10613 10610 10606 10602 10599 10595 10592 10588 10584 10579 10574 10570 10566 10562 10557 10552 10546 10542 10538 10533 10527 10521 10515 10509 10504 10499 10494 10489 10485 10481 10476 10472 10468 10465 10462 10459 10457 10455 10452 10447 10444 10443 10439 10437 10435 10433 10431 10430 10429 10428 10430 10434 10438 10441 10443 10445 10447
10670 10668 10667 10667 10665 10663 10662 10661 10660 10658 10657 10654 10651 10649 10647 10644 10641 10638 10635 10632 10629 10626 10623 10620 10617 10615 10613 10610 10606 10603 10599 10595 10592 10589 10585 10581 10577 10573 10568 10563 10559 10555 10550 10544 10538 10534 10529 10524 10517 10511 10505 10499 10494 10489 10484 10480 10475 10471 10466 10461 10458 10453 10449 10447 10444 10442 10440 10435 10431 10429 10427 10423 10422 10421 10419 10418 10417 10416 10415 10417 10421 10425 10428 10430 10433
10664 10663 10663 10662 10659 10657 10656 10655 10654 10652 10650 10648 10645 10644 10642 10638 10635 10632 10629 10626 10623 10620 10616 10613 10611 10608 10606 10603 10599 10596 10592 10589 10585 10582 10578 10574 10570 10566 10561 10556 10551 10548 10543 10537 10530 10525 10520 10514 10508 10502 10495 10489 10484 10478 10474 10469 10465 10461 10457 10451 10447 10442 10438 10434 10431 10428 10426 10423 10419 10415 10413 10411 10407 10406 10405 10405 10405 10404 10403 10402 10404 10408 10412 10415 10418
10659 10659 10658 10657 10654 10651 10650 10649 10648 10647 10645 10642 10640 10638 10636 10633 10629 10626 10623 10620 10616 10613 10610 10607 10604 10602 10599 10596 10593 10589 10585 10582 10579 10575 10571 10567 10563 10559 10555 10549 10544 10540 10536 10530 10523 10516 10511 10505 10498 10492 10486 10480 10475 10469 10463 10458 10453 10449 10445 10441 10435 10430 10425 10421 10418 10414 10412 10410 10406 10402 10399 10397 10395 10392 10391 10392 10393 10392 10391 10390 10388 10391 10395 10399 10403
10657 10657 10655 10652 10649 10646 10645 10643 10642 10640 10638 10636 10634 10632 10629 10626 10623 10620 10617 10614 10610 10607 10603 10600 10597 10595 10592 10589 10586 10582 10579 10575 10572 10569 10565 10561 10556 10552 10548 10542 10536 10532 10528 10523 10516 10509 10502 10496 10488 10482 10476 10470 10465 10459 10453 10447 10442 10438 10433 10429 10424 10418 10413 10409 10405 10401 10397 10395 10393 10390 10386 10383 10382 10380 10377 10378 10379 10379 10378 10377 10375 10374 10377 10382 10386
10652 10652 10649 10646 10643 10640 10639 10638 10636 10634 10631 10629 10627 10625 10623 10620 10617 10614 10611 10607 10603 10600 10596 10593 10591 10588 10585 10583 10579 10576 10572 10569 10565 10562 10558 10554 10549 10545 10540 10534 10528 10523 10519 10515 10509 10501 10494 10487 10479 10472 10466 10460 10455 10449 10444 10438 10431 10427 10422 10418 10413 10407 10402 10398 10393 10389 10385 10381 10379 10377 10374 10371 10369 10368 10365 10364 10365 10364 10363 10364 10363 10360 10360 10366 10371
10644 10644 10641 10638 10636 10634 10633 10632 10630 10627 10625 10623 10621 10619 10616 10613 10610 10607 10604 10600 10597 10593 10590 10587 10584 10582 10579 10576 10573 10570 10566 10562 10559 10555 10550 10546 10542 10537 10533 10527 10521 10516 10511 10506 10500 10494 10486 10478 10471 10463 10456 10450 10444 10439 10434 10429 10423 10417 10412 10407 10402 10397 10392 10387 10383 10378 10374 10370 10366 10364 10361 10358 10356 10355 10353 10351 10351 10350 10349 10351 10352 10349 10346 10349 10355
10637 10638 10635 10632 10630 10628 10626 10626 10624 10621 10618 10616 10614 10612 10610 10607 10603 10600 10597 10594 10591 10587 10584 10581 10578 10575 10573 10570 10567 10563 10559 10556 10552 10547 10543 10539 10534 10529 10525 10520 10514 10508 10502 10497 10491 10484 10478 10470 10463 10456 10449 10441 10435 10430 10424 10419 10414 10408 10402 10397 10393 10388 10382 10377 10372 10368 10363 10358 10354 10351 10349 10346 10343 10341 10340 10339 10338 10337 10335 10337 10340 10339 10336 10335 10338
10630 10630 10629 10626 10624 10622 10620 10619 10617 10614 10612 10610 10608 10606 10603 10600 10597 10594 10591 10588 10585 10581 10578 10575 10572 10569 10566 10563 10560 10556 10552 10549 10545 10540 10536 10531 10526 10522 10517 10512 10507 10500 10494 10488 10482 10475 10469 10462 10455 10448 10441 10434 10427 10420 10414 10408 10403 10397 10392 10388 10384 10379 10374 10368 10362 10357 10353 10348 10343 10340 10338 10334 10330 10328 10328 10326 10324 10324 10323 10324 10327 10327 10326 10327 10325
10623 10622 10621 10619 10618 10616 10614 10612 10610 10608 10606 10604 10602 10599 10596 10593 10591 10588 10585 10582 10579 10576 10572 10569 10566 10563 10560 10557 10553 10550 10546 10542 10538 10533 10529 10524 10519 10514 10509 10504 10498 10492 10486 10480 10473 10467 10460 10453 10446 10440 10433 10425 10418 10411 10405 10398 10392 10386 10381 10376 10372 10368 10363 10359 10353 10348 10343 10338 10333 10330 10328 10324 10318 10315 10315 10314 10311 10310 10310 10311 10313 10313 10314 10317 10316
10617 10616 10614 10613 10611 10609 10608 10606 10604 10602 10600 10598 10595 10593 10590 10587 10585 10582 10579 10576 10573 10569 10566 10563 10559 10556 10553 10550 10546 10543 10539 10535 10530 10526 10521 10517 10512 10507 10502 10496 10490 10484 10478 10472 10465 10458 10451 10444 10438 10431 10424 10418 10411 10404 10396 10389 10382 10376 10371 10366 10361 10356 10351 10347 10344 10340 10336 10331 10325 10321 10318 10315 10308 10303 10303 10302 10299 10297 10296 10296 10299 10301 10301 10304 10306
10611 10610 10608 10607 10605 10603 10601 10599 10597 10595 10593 10591 10589 10587 10584 10581 10579 10576 10573 10570 10566 10563 10559 10556 10552 10549 10546 10543 10539 10536 10532 10528 10523 10518 10514 10509 10504 10500 10494 10488 10482 10476 10470 10464 10457 10450 10443 10437 10430 10423 10417 10410 10404 10396 10389 10381 10373 10367 10361 10356 10350 10345 10340 10335 10331 10328 10326 10323 10318 10313 10310 10305 10299 10294 10292 10292 10290 10287 10285 10284 10285 10288 10289 10290 10293
10605 10603 10602 10600 10599 10597 10595 10593 10591 10589 10587 10585 10583 10581 10578 10575 10572 10570 10567 10563 10560 10556 10553 10549 10546 10542 10539 10536 10532 10529 10525 10520 10516 10511 10507 10502 10497 10492 10487 10481 10474 10468 10462 10456 10449 10442 10436 10429 10423 10416 10409 10403 10396 10389 10382 10374 10366 10359 10353 10348 10342 10336 10331 10326 10321 10317 10314 10311 10309 10304 10300 10296 10291 10286 10283 10282 10280 10277 10275 10273 10272 10274 10278 10278 10280
10598 10597 10595 10593 10592 10591 10589 10587 10585 10583 10581 10580 10577 10575 10572 10569 10566 10563 10560 10557 10553 10550 10546 10543 10539 10535 10532 10529 10526 10522 10518 10513 10509 10504 10500 10495 10490 10485 10480 10474 10467 10461 10454 10448 10441 10435 10428 10422 10415 10409 10402 10396 10389 10383 10375 10367 10359 10352 10346 10340 10334 10329 10324 10318 10314 10310 10306 10301 10298 10295 10291 10287 10282 10278 10275 10272 10270 10268 10265 10263 10262 10263 10265 10267 10269
10592 10590 10589 10587 10586 10585 10583 10581 10580 10578 10576 10574 10571 10568 10566 10563 10559 10557 10554 10550 10547 10543 10539 10536 10532 10529 10525 10523 10519 10516 10511 10506 10502 10498 10493 10488 10483 10477 10472 10466 10460 10454 10447 10440 10434 10427 10421 10415 10409 10402 10396 10389 10382 10375 10368 10361 10354 10347 10340 10334 10327 10321 10315 10309 10305 10302 10298 10293 10289 10285 10281 10278 10273 10270 10267 10264 10261 10258 10255 10254 10255 10254 10254 10256 10259
10586 10584 10583 10581 10580 10579 10577 10576 10574 10572 10570 10567 10565 10562 10559 10556 10553 10550 10547 10544 10540 10536 10533 10529 10526 10522 10519 10516 10513 10509 10504 10499 10495 10491 10486 10481 10475 10470 10464 10459 10453 10447 10440 10433 10427 10421 10415 10408 10402 10396 10389 10382 10376 10369 10362 10355 10348 10342 10335 10328 10322 10316 10309 10302 10296 10292 10289 10284 10280 10276 10272 10269 10265 10262 10259 10256 10254 10251 10248 10246 10247 10248 10247 10248 10250
10579 10578 10577 10575 10574 10573 10571 10570 10568 10566 10564 10561 10559 10556 10553 10550 10547 10543 10540 10537 10533 10530 10526 10522 10519 10515 10512 10510 10506 10502 10497 10492 10488 10483 10479 10473 10468 10463 10457 10452 10446 10440 10433 10427 10421 10414 10408 10402 10396 10390 10383 10377 10370 10363 10357 10350 10343 10337 10330 10323 10317 10311 10305 10298 10292 10286 10281 10276 10271 10267 10264 10261 10257 10254 10251 10249 10247 10245 10243 10240 10239 10240 10241 10241 10242
10573 10572 10570 10569 10568 10567 10565 10564 10562 10560 10557 10555 10552 10549 10546 10543 10540 10537 10533 10530 10526 10523 10520 10516 10512 10509 10506 10503 10499 10494 10489 10485 10480 10476 10471 10466 10461 10456 10450 10445 10439 10432 10426 10420 10414 10408 10402 10396 10390 10384 10378 10371 10364 10357 10351 10345 10338 10332 10326 10319 10313 10307 10301 10295 10290 10285 10279 10272 10266 10261 10257 10254 10251 10248 10245 10243 10241 10239 10238 10235 10233 10232 10234 10235 10235
10567 10566 10564 10563 10562 10561 10560 10558 10556 10554 10551 10548 10546 10543 10540 10537 10534 10530 10527 10523 10520 10516 10513 10509 10505 10502 10500 10497 10492 10487 10482 10477 10473 10469 10464 10459 10454 10448 10443 10437 10431 10425 10419 10413 10407 10401 10395 10390 10384 10378 10372 10365 10358 10351 10345 10339 10333 10327 10321 10315 10310 10304 10298 10292 10287 10283 10276 10269 10263 10258 10253 10249 10246 10243 10240 10238 10235 10234 10233 10231 10228 10227 10228 10229 10229
10561 10559 10558 10557 10556 10555 10554 10552 10550 10547 10544 10542 10539 10536 10533 10530 10527 10523 10520 10516 10513 10509 10506 10502 10499 10496 10493 10489 10484 10479 10475 10470 10466 10461 10457 10452 10446 10441 10435 10429 10424 10418 10412 10406 10400 10394 10388 10383 10377 10371 10365 10359 10352 10345 10339 10333 10328 10322 10316 10311 10306 10301 10295 10289 10283 10278 10272 10265 10260 10254 10249 10246 10242 10239 10236 10233 10231 10229 10227 10226 10224 10223 10223 10225 10225
10554 10553 10552 10551 10550 10549 10547 10545 10543 10540 10537 10535 10532 10529 10525 10523 10519 10516 10513 10509 10506 10502 10499 10496 10493 10490 10487 10482 10477 10472 10468 10463 10459 10454 10449 10444 10439 10433 10428 10423 10417 10411 10405 10399 10394 10388 10382 10377 10371 10366 10360 10354 10347 10341 10335 10329 10324 10318 10312 10306 10301 10295 10290 10284 10279 10274 10267 10261 10256 10251 10246 10242 10239 10235 10233 10230 10227 10225 10224 10222 10221 10220 10220 10221 10222
10548 10547 10545 10545 10544 10542 10541 10538 10536 10533 10531 10528 10524 10521 10518 10515 10512 10509 10506 10503 10499 10495 10493 10490 10487 10484 10480 10475 10470 10466 10461 10456 10452 10447 10442 10437 10432 10427 10422 10417 10411 10405 10400 10394 10388 10382 10376 10371 10366 10361 10355 10349 10343 10337 10331 10326 10321 10315 10309 10302 10297 10291 10285 10279 10275 10269 10263 10257 10253 10248 10243 10239 10236 10233 10230 10227 10225 10223 10221 10220 10218 10218 10218 10218 10219
10541 10540 10539 10539 10537 10536 10534 10531 10529 10526 10524 10520 10517 10514 10511 10508 10505 10502 10498 10495 10492 10489 10486 10484 10481 10477 10473 10469 10464 10459 10455 10450 10445 10441 10436 10432 10427 10422 10416 10411 10405 10400 10394 10389 10383 10377 10372 10367 10362 10357 10351 10346 10340 10334 10328 10323 10318 10313 10307 10300 10294 10288 10282 10276 10271 10266 10260 10255 10250 10246 10242 10238 10234 10231 10228 10226 10224 10222 10220 10218 10217 10216 10216 10216 10217
10534 10534 10533 10532 10531 10529 10527 10524 10522 10519 10516 10513 10510 10507 10504 10501 10497 10494 10491 10488 10485 10482 10480 10477 10475 10471 10467 10463 10458 10453 10448 10444 10439 10435 10431 10426 10421 10416 10411 10406 10400 10395 10390 10384 10378 10373 10367 10362 10357 10353 10348 10343 10337 10331 10325 10319 10315 10310 10305 10298 10292 10286 10280 10274 10269 10264 10259 10253 10249 10244 10240 10237 10233 10230 10227 10225 10223 10221 10219 10217 10216 10215 10215 10215 10215
10528 10527 10527 10525 10523 10522 10519 10517 10514 10512 10509 10506 10503 10500 10497 10494 10490 10487 10485 10482 10479 10476 10473 10470 10467 10464 10460 10456 10451 10447 10442 10438 10434 10429 10425 10420 10415 10410 10405 10400 10395 10390 10385 10380 10374 10369 10363 10358 10353 10348 10344 10339 10334 10329 10323 10317 10312 10307 10301 10295 10289 10283 10278 10273 10268 10264 10258 10253 10248 10243 10239 10236 10233 10229 10227 10224 10222 10220 10218 10217 10216 10215 10215 10215 10215
10522 10521 10520 10518 10516 10514 10511 10509 10507 10504 10501 10498 10495 10492 10489 10486 10483 10481 10479 10476 10473 10470 10466 10463 10460 10457 10453 10449 10445 10441 10437 10432 10428 10423 10419 10414 10409 10404 10400 10395 10391 10386 10381 10375 10370 10365 10359 10354 10349 10344 10340 10335 10330 10326 10321 10315 10308 10303 10298 10292 10286 10281 10276 10271 10266 10262 10256 10251 10246 10242 10238 10235 10232 10228 10225 10223 10221 10219 10218 10217 10216 10215 10215 10215 10215
10515 10514 10512 10510 10508 10506 10504 10501 10499 10497 10494 10490 10488 10485 10482 10479 10476 10475 10473 10470 10467 10463 10460 10457 10454 10450 10447 10443 10439 10435 10431 10426 10422 10417 10413 10408 10404 10399 10395 10390 10386 10382 10377 10372 10366 10360 10355 10350 10345 10340 10336 10331 10326 10321 10317 10312 10306 10301 10295 10290 10284 10278 10273 10267 10263 10258 10254 10249 10245 10241 10238 10234 10231 10228 10225 10223 10221 10220 10218 10217 10216 10216 10216 10216 10216
10507 10506 10504 10502 10500 10498 10496 10494 10491 10489 10486 10483 10480 10477 10474 10472 10470 10469 10466 10463 10460 10457 10454 10451 10447 10444 10441 10437 10433 10429 10425 10420 10416 10412 10407 10403 10399 10395 10390 10386 10381 10377 10372 10367 10362 10356 10351 10346 10341 10337 10332 10327 10323 10318 10313 10309 10304 10299 10294 10288 10283 10277 10272 10267 10262 10258 10254 10250 10245 10241 10237 10234 10231 10228 10226 10223 10222 10220 10219 10219 10218 10217 10217 10217 10218
10499 10498 10496 10494 10492 10490 10488 10485 10483 10480 10478 10475 10472 10469 10467 10465 10464 10462 10459 10456 10453 10451 10448 10445 10441 10438 10435 10431 10427 10423 10419 10415 10411 10407 10402 10398 10394 10390 10385 10381 10377 10372 10367 10362 10357 10352 10347 10342 10337 10334 10329 10325 10321 10316 10312 10307 10302 10298 10293 10288 10283 10277 10272 10267 10262 10258 10255 10251 10246 10242 10238 10235 10232 10229 10227 10224 10223 10221 10220 10220 10219 10219 10219 10219 10220
10491 10490 10488 10486 10484 10482 10480 10477 10474 10472 10469 10467 10464 10462 10460 10459 10457 10454 10452 10449 10447 10444 10442 10439 10435 10432 10428 10425 10421 10417 10413 10410 10406 10402 10398 10393 10389 10384 10380 10376 10372 10367 10362 10357 10352 10347 10343 10339 10335 10331 10327 10324 10319 10315 10311 10307 10302 10297 10292 10288 10283 10277 10272 10267 10263 10258 10255 10251 10247 10242 10239 10235 10233 10230 10228 10226 10224 10223 10222 10221 10221 10221 10221 10221 10222
10483 10482 10480 10478 10476 10473 10471 10468 10466 10463 10461 10459 10457 10455 10453 10451 10449 10447 10445 10442 10440 10438 10435 10432 10429 10426 10422 10419 10415 10412 10408 10404 10400 10396 10392 10388 10384 10379 10375 10371 10366 10362 10357 10352 10348 10344 10340 10336 10332 10328 10325 10321 10318 10314 10310 10306 10301 10296 10291 10287 10282 10277 10273 10268 10264 10260 10256 10252 10247 10243 10240 10236 10234 10231 10229 10227 10226 10224 10223 10223 10222 10223 10223 10223 10224
10475 10473 10471 10469 10466 10464 10461 10459 10457 10454 10452 10451 10450 10448 10445 10443 10441 10439 10437 10436 10434 10431 10429 10426 10422 10419 10416 10413 10409 10406 10402 10398 10395 10390 10386 10382 10378 10374 10369 10365 10361 10356 10352 10348 10344 10340 10337 10333 10329 10326 10322 10319 10316 10313 10309 10304 10300 10295 10291 10287 10282 10278 10273 10269 10264 10260 10256 10252 10248 10244 10240 10237 10235 10233 10231 10229 10227 10226 10225 10224 10224 10224 10225 10226 10227
10465 10464 10462 10459 10457 10455 10452 10450 10448 10445 10444 10443 10442 10440 10437 10435 10434 10432 10430 10429 10427 10424 10421 10419 10416 10413 10410 10407 10403 10400 10397 10393 10389 10385 10381 10377 10373 10369 10364 10360 10356 10352 10347 10343 10340 10336 10333 10330 10326 10323 10320 10317 10314 10311 10307 10303 10298 10294 10290 10286 10281 10277 10273 10268 10264 10259 10255 10252 10249 10246 10242 10238 10236 10234 10232 10230 10229 10228 10227 10226 10226 10226 10227 10227 10229
10455 10454 10452 10449 10447 10444 10442 10440 10438 10437 10436 10435 10434 10432 10429 10428 10426 10425 10424 10422 10420 10418 10415 10412 10409 10406 10403 10400 10397 10394 10391 10387 10383 10379 10375 10371 10367 10364 10360 10356 10352 10348 10343 10340 10336 10333 10330 10327 10323 10320 10318 10315 10312 10309 10305 10301 10297 10293 10289 10285 10281 10277 10273 10268 10264 10260 10256 10253 10250 10247 10243 10240 10237 10235 10233 10232 10230 10229 10228 10228 10227 10227 10228 10229 10230
10446 10444 10441 10438 10436 10434 10433 10431 10429 10428 10428 10427 10425 10424 10422 10421 10420 10419 10418 10415 10413 10411 10408 10405 10402 10400 10397 10394 10391 10388 10384 10381 10377 10373 10370 10366 10362 10359 10355 10351 10348 10344 10339 10336 10333 10330 10327 10324 10321 10318 10315 10313 10310 10307 10303 10300 10296 10292 10288 10284 10281 10277 10273 10268 10264 10261 10257 10253 10250 10247 10244 10241 10238 10236 10234 10233 10231 10231 10230 10229 10229 10228 10228 10229 10231
10435 10433 10430 10428 10427 10425 10424 10422 10421 10420 10420 10419 10418 10417 10416 10415 10414 10412 10410 10408 10406 10404 10402 10399 10397 10394 10391 10388 10385 10382 10378 10375 10371 10368 10364 10361 10357 10353 10350 10346 10343 10339 10335 10332 10329 10326 10324 10321 10319 10316 10314 10311 10308 10304 10301 10298 10295 10291 10287 10284 10280 10277 10273 10269 10266 10262 10258 10254 10251 10248 10245 10242 10240 10237 10235 10233 10232 10232 10231 10231 10230 10230 10229 10230 10231
10424 10422 10420 10419 10418 10417 10415 10414 10413 10412 10412 10411 10410 10410 10409 10408 10407 10405 10403 10402 10400 10398 10395 10393 10390 10388 10385 10382 10379 10376 10373 10369 10366 10363 10359 10355 10351 10348 10345 10341 10338 10335 10332 10328 10325 10323 10321 10318 10316 10314 10311 10308 10305 10302 10299 10296 10293 10290 10286 10283 10279 10276 10273 10269 10266 10262 10258 10255 10252 10248 10246 10243 10241 10238 10236 10234 10233 10232 10232 10231 10231 10231 10231 10231 10231
10414 10413 10412 10411 10410 10409 10408 10407 10406 10406 10405 10404 10404 10403 10402 10401 10399 10398 10397 10395 10393 10391 10389 10387 10384 10382 10379 10376 10373 10369 10366 10363 10360 10357 10353 10349 10346 10343 10340 10338 10335 10332 10329 10326 10323 10321 10318 10316 10313 10311 10308 10305 10302 10299 10297 10294 10290 10287 10285 10282 10278 10275 10272 10268 10265 10262 10259 10255 10252 10249 10247 10244 10242 10239 10237 10235 10234 10233 10232 10232 10232 10232 10232 10232 10232
10405 10405 10405 10405 10404 10403 10403 10402 10401 10400 10399 10399 10398 10397 10396 10395 10393 10392 10391 10389 10387 10385 10383 10381 10378 10376 10373 10370 10366 10363 10359 10357 10354 10351 10348 10345 10342 10339 10337 10334 10331 10329 10326 10324 10321 10319 10316 10314 10311 10308 10305 10302 10299 10297 10294 10292 10288 10285 10283 10280 10277 10274 10271 10268 10265 10262 10259 10256 10253 10250 10247 10245 10242 10240 10238 10236 10235 10233 10232 10232 10232 10232 10232 10232 10232
10397 10397 10398 10398 10398 10397 10396 10395 10395 10394 10393 10393 10392 10391 10390 10389 10388 10386 10384 10382 10380 10378 10376 10374 10372 10369 10367 10364 10361 10357 10354 10351 10349 10346 10344 10341 10338 10336 10333 10330 10328 10326 10324 10321 10319 10316 10313 10311 10308 10305 10302 10300 10297 10294 10292 10289 10287 10284 10281 10278 10276 10273 10270 10268 10265 10262 10259 10256 10254 10251 10248 10246 10243 10241 10239 10237 10236 10234 10233 10232 10232 10231 10232 10232 10232
10391 10391 10391 10392 10391 10390 10389 10389 10388 10388 10387 10387 10386 10385 10384 10383 10381 10380 10378 10376 10374 10372 10370 10368 10365 10363 10361 10359 10356 10353 10350 10347 10344 10342 10339 10336 10334 10331 10329 10326 10324 10322 10320 10317 10315 10312 10310 10307 10304 10302 10299 10297 10294 10292 10289 10287 10285 10282 10279 10277 10274 10272 10269 10266 10264 10261 10259 10256 10253 10251 10249 10246 10244 10242 10239 10238 10236 10235 10233 10232 10232 10231 10231 10231 10232
10385 10385 10385 10385 10384 10384 10383 10383 10382 10382 10381 10380 10380 10379 10377 10376 10375 10373 10372 10370 10368 10366 10363 10361 10359 10357 10355 10353 10351 10348 10345 10342 10339 10336 10334 10331 10329 10326 10324 10321 10319 10317 10315 10313 10311 10309 10306 10304 10301 10299 10296 10294 10291 10288 10286 10284 10282 10280 10277 10274 10272 10270 10267 10265 10263 10260 10258 10255 10253 10251 10248 10246 10244 10242 10240 10238 10236 10235 10233 10233 10232 10231 10231 10231 10231
10379 10379 10379 10378 10378 10378 10377 10377 10376 10376 10375 10374 10373 10372 10371 10370 10368 10367 10365 10363 10361 10359 10357 10355 10353 10350 10348 10346 10344 10341 10338 10336 10333 10331 10329 10326 10324 10322 10320 10317 10315 10312 10311 10309 10307 10305 10304 10302 10300 10297 10294 10291 10288 10286 10283 10281 10279 10277 10275 10272 10270 10268 10266 10263 10261 10259 10256 10254 10252 10249 10247 10245 10244 10242 10240 10238 10236 10234 10233 10232 10231 10231 10230 10230 10230
10373 10373 10373 10372 10372 10371 10371 10370 10370 10369 10369 10368 10367 10365 10364 10363 10362 10360 10358 10357 10355 10353 10351 10349 10347 10344 10341 10339 10337 10335 10333 10330 10328 10326 10324 10322 10320 10318 10315 10313 10311 10308 10306 10305 10304 10303 10302 10300 10298 10296 10292 10289 10286 10283 10280 10278 10276 10275 10273 10271 10268 10266 10264 10262 10259 10257 10255 10252 10250 10248 10246 10244 10242 10241 10239 10238 10236 10234 10233 10231 10230 10230 10229 10229 10229
10367 10367 10367 10367 10366 10365 10365 10364 10364 10363 10363 10362 10360 10359 10358 10357 10355 10354 10352 10350 10348 10347 10345 10343 10340 10338 10336 10333 10331 10329 10327 10325 10323 10321 10319 10317 10315 10313 10311 10309 10307 10305 10304 10302 10300 10299 10298 10297 10296 10294 10291 10288 10285 10282 10279 10276 10273 10272 10270 10269 10267 10264 10262 10260 10257 10255 10253 10251 10249 10247 10245 10243 10241 10240 10238 10237 10235 10234 10232 10231 10230 10229 10228 10228 10228
10361 10361 10361 10361 10360 10359 10359 10358 10358 10357 10356 10355 10354 10353 10352 10351 10349 10348 10346 10344 10342 10340 10339 10337 10335 10332 10330 10328 10326 10324 10322 10320 10318 10317 10315 10313 10312 10310 10308 10306 10305 10303 10301 10299 10297 10295 10293 10292 10291 10289 10288 10286 10284 10282 10279 10276 10272 10269 10267 10265 10263 10261 10259 10257 10255 10253 10251 10249 10248 10246 10244 10242 10240 10239 10237 10235 10234 10233 10232 10230 10229 10228 10227 10226 10226
10353 10354 10354 10354 10353 10352 10352 10352 10351 10350 10350 10349 10348 10347 10346 10344 10343 10341 10339 10338 10336 10334 10332 10331 10329 10327 10325 10323 10321 10319 10317 10316 10314 10312 10311 10309 10308 10306 10305 10303 10301 10299 10298 10296 10293 10291 10289 10287 10285 10284 10283 10282 10280 10279 10278 10275 10272 10269 10266 10263 10260 10258 10256 10254 10253 10251 10249 10248 10246 10245 10243 10241 10239 10238 10236 10234 10233 10231 10230 10229 10228 10227 10226 10225 10224
10346 10346 10347 10346 10346 10346 10346 10345 10344 10343 10343 10342 10341 10340 10339 10337 10336 10334 10333 10331 10330 10328 10326 10325 10323 10321 10320 10318 10316 10315 10313 10311 10310 10308 10306 10304 10303 10301 10299 10298 10296 10294 10293 10291 10290 10287 10285 10282 10280 10278 10277 10276 10275 10274 10273 10272 10270 10267 10264 10261 10259 10256 10254 10252 10250 10249 10248 10246 10245 10243 10242 10240 10238 10236 10235 10233 10232 10230 10229 10227 10226 10225 10224 10224 10223
10340 10340 10340 10340 10340 10340 10339 10338 10337 10337 10336 10335 10334 10333 10332 10331 10329 10328 10327 10325 10323 10322 10321 10319 10317 10316 10314 10313 10311 10310 10308 10306 10304 10303 10301 10299 10298 10296 10294 10293 10292 10290 10289 10287 10285 10283 10281 10279 10276 10274 10271 10270 10268 10267 10266 10265 10264 10263 10261 10259 10257 10254 10252 10250 10248 10246 10245 10244 10243 10241 10240 10238 10236 10235 10233 10232 10230 10229 10227 10226 10224 10223 10222 10222 10221
10334 10334 10333 10333 10334 10333 10332 10331 10331 10330 10329 10328 10327 10326 10326 10325 10323 10322 10321 10319 10318 10317 10315 10313 10312 10311 10309 10308 10306 10304 10303 10301 10300 10298 10297 10295 10294 10293 10291 10290 10288 10287 10285 10283 10281 10279 10277 10275 10273 10271 10268 10265 10263 10262 10260 10259 10258 10258 10257 10256 10254 10252 10250 10247 10245 10243 10242 10241 10240 10238 10237 10236 10235 10233 10232 10230 10228 10227 10225 10224 10222 10221 10220 10219 10218